| time (UTC) | temp C | wind direction | speed KPH | gust KPH | rain 1hr cm | rain 24hr cm | rain mn cm | humidity % | barometer mb |
| 20260902014601 | 30 | 124 | 3.2 | 8.0 | 0.00 | 0.00 | 0.00 | 68 | 1012.4 |
| 20260902014112 | 30 | 127 | 1.6 | 11.3 | 0.00 | 0.00 | 0.00 | 68 | 1012.3 |
| 20260902013612 | 30 | 130 | 4.8 | 11.3 | 0.00 | 0.00 | 0.00 | 68 | 1012.3 |
| 20260902013046 | 30 | 113 | 3.2 | 12.9 | 0.00 | 0.00 | 0.00 | 67 | 1012.4 |
| 20260902012556 | 30 | 71 | 3.2 | 14.5 | 0.00 | 0.00 | 0.00 | 67 | 1012.3 |
| 20260902011618 | 30 | 124 | 4.8 | 12.9 | 0.00 | 0.00 | 0.00 | 66 | 1012.3 |
| 20260902011051 | 30 | 125 | 6.4 | 14.5 | 0.00 | 0.00 | 0.00 | 66 | 1012.3 |
| 20260902010112 | 31 | 71 | 4.8 | 17.7 | 0.00 | 0.00 | 0.00 | 64 | 1012.0 |
| 20260902005617 | 31 | 117 | 3.2 | 14.5 | 0.00 | 0.00 | 0.00 | 64 | 1012.0 |
| 20260902004622 | 32 | 131 | 3.2 | 12.9 | 0.00 | 0.00 | 0.00 | 62 | 1012.0 |
| 20260902004106 | 32 | 80 | 4.8 | 14.5 | 0.00 | 0.00 | 0.00 | 61 | 1011.9 |
| 20260902003129 | 32 | 115 | 6.4 | 20.9 | 0.00 | 0.00 | 0.00 | 59 | 1011.9 |
| 20260902002540 | 33 | 105 | 8.0 | 19.3 | 0.00 | 0.00 | 0.00 | 57 | 1011.7 |
| 20260902001606 | 34 | 134 | 3.2 | 9.7 | 0.00 | 0.00 | 0.00 | 50 | 1011.5 |
| 20260902001115 | 34 | 117 | 1.6 | 17.7 | 0.00 | 0.00 | 0.00 | 50 | 1011.3 |
| 20260902000116 | 35 | 120 | 4.8 | 12.9 | 0.00 | 0.00 | 0.00 | 49 | 1011.5 |
| 20260901235626 | 35 | 109 | 4.8 | 12.9 | 0.00 | 0.00 | 0.00 | 49 | 1011.4 |
| 20260901234643 | 35 | 121 | 8.0 | 17.7 | 0.00 | 0.00 | 0.00 | 48 | 1011.4 |
| 20260901234112 | 35 | 84 | 6.4 | 17.7 | 0.00 | 0.00 | 0.00 | 48 | 1011.4 |
| 20260901233614 | 35 | 94 | 6.4 | 16.1 | 0.00 | 0.00 | 0.00 | 49 | 1011.4 |
| 20260901233044 | 35 | 130 | 6.4 | 14.5 | 0.00 | 0.00 | 0.00 | 49 | 1011.6 |
| 20260901232551 | 35 | 123 | 4.8 | 14.5 | 0.00 | 0.00 | 0.00 | 49 | 1011.6 |
| 20260901232039 | 35 | 86 | 9.7 | 14.5 | 0.00 | 0.00 | 0.00 | 48 | 1011.7 |
| 20260901231626 | 35 | 144 | 8.0 | 16.1 | 0.00 | 0.00 | 0.00 | 48 | 1011.6 |
| 20260901231135 | 35 | 125 | 6.4 | 20.9 | 0.00 | 0.00 | 0.00 | 48 | 1011.6 |
| 20260901230625 | 35 | 82 | 9.7 | 19.3 | 0.00 | 0.00 | 0.00 | 48 | 1011.7 |
| 20260901225548 | 35 | 84 | 11.3 | 17.7 | 0.00 | 0.00 | 0.00 | 46 | 1011.6 |
| 20260901224610 | 35 | 118 | 8.0 | 12.9 | 0.00 | 0.00 | 0.00 | 48 | 1011.8 |
| 20260901224122 | 35 | 57 | 4.8 | 16.1 | 0.00 | 0.00 | 0.00 | 48 | 1011.7 |
| 20260901223123 | 35 | 119 | 1.6 | 9.7 | 0.00 | 0.00 | 0.00 | 48 | 1011.8 |
| 20260901222539 | 35 | 75 | 4.8 | 9.7 | 0.00 | 0.00 | 0.00 | 48 | 1011.8 |
| 20260901222039 | 35 | 125 | 4.8 | 17.7 | 0.00 | 0.00 | 0.00 | 49 | 1011.9 |
| 20260901221040 | 35 | 80 | 6.4 | 17.7 | 0.00 | 0.00 | 0.00 | 49 | 1012.0 |
| 20260901215613 | 35 | 97 | 11.3 | 19.3 | 0.00 | 0.00 | 0.00 | 49 | 1012.1 |
| 20260901214615 | 35 | 49 | 8.0 | 19.3 | 0.00 | 0.00 | 0.00 | 48 | 1012.0 |
| 20260901214106 | 35 | 75 | 3.2 | 16.1 | 0.00 | 0.00 | 0.00 | 48 | 1012.0 |
| 20260901213610 | 35 | 40 | 6.4 | 19.3 | 0.00 | 0.00 | 0.00 | 48 | 1012.1 |
| 20260901213041 | 35 | 36 | 11.3 | 19.3 | 0.00 | 0.00 | 0.00 | 49 | 1012.1 |
| 20260901212553 | 35 | 100 | 1.6 | 19.3 | 0.00 | 0.00 | 0.00 | 50 | 1012.1 |
| 20260901211616 | 35 | 91 | 4.8 | 14.5 | 0.00 | 0.00 | 0.00 | 51 | 1012.1 |
| 20260901211128 | 35 | 61 | 6.4 | 20.9 | 0.00 | 0.00 | 0.00 | 51 | 1012.1 |
| 20260901210633 | 35 | 108 | 9.7 | 20.9 | 0.00 | 0.00 | 0.00 | 51 | 1012.2 |
| 20260901210101 | 35 | 69 | 11.3 | 22.5 | 0.00 | 0.00 | 0.00 | 51 | 1012.2 |
| 20260901205615 | 35 | 80 | 6.4 | 20.9 | 0.00 | 0.00 | 0.00 | 52 | 1012.2 |
| 20260901205118 | 35 | 93 | 12.9 | 19.3 | 0.00 | 0.00 | 0.00 | 51 | 1012.3 |
| 20260901204548 | 35 | 65 | 12.9 | 19.3 | 0.00 | 0.00 | 0.00 | 50 | 1012.3 |
| 20260901204053 | 35 | 67 | 11.3 | 22.5 | 0.00 | 0.00 | 0.00 | 48 | 1012.4 |
| 20260901203123 | 36 | 38 | 17.7 | 25.7 | 0.00 | 0.00 | 0.00 | 48 | 1012.5 |
| 20260901202626 | 36 | 81 | 16.1 | 27.4 | 0.00 | 0.00 | 0.00 | 50 | 1012.6 |
| 20260901202137 | 35 | 86 | 12.9 | 27.4 | 0.00 | 0.00 | 0.00 | 51 | 1012.6 |
| 20260901201559 | 36 | 90 | 12.9 | 22.5 | 0.00 | 0.00 | 0.00 | 50 | 1012.7 |
| 20260901201126 | 35 | 355 | 4.8 | 22.5 | 0.00 | 0.00 | 0.00 | 51 | 1012.8 |
| 20260901200636 | 35 | 68 | 11.3 | 24.1 | 0.00 | 0.00 | 0.00 | 51 | 1012.9 |
| 20260901200100 | 35 | 80 | 9.7 | 20.9 | 0.00 | 0.00 | 0.00 | 53 | 1013.0 |
| 20260901195610 | 35 | 90 | 12.9 | 24.1 | 0.00 | 0.00 | 0.00 | 52 | 1013.0 |
| 20260901195158 | 35 | 84 | 9.7 | 20.9 | 0.00 | 0.00 | 0.00 | 52 | 1012.9 |
| 20260901194600 | 35 | 176 | 6.4 | 14.5 | 0.00 | 0.00 | 0.00 | 52 | 1013.0 |
| 20260901193637 | 35 | 314 | 3.2 | 14.5 | 0.00 | 0.00 | 0.00 | 53 | 1013.0 |
| 20260901193048 | 35 | 109 | 1.6 | 14.5 | 0.00 | 0.00 | 0.00 | 53 | 1013.0 |
| 20260901192552 | 35 | 69 | 6.4 | 12.9 | 0.00 | 0.00 | 0.00 | 54 | 1013.1 |
| 20260901191622 | 34 | 26 | 8.0 | 14.5 | 0.00 | 0.00 | 0.00 | 55 | 1013.3 |
| 20260901191127 | 34 | 35 | 4.8 | 16.1 | 0.00 | 0.00 | 0.00 | 56 | 1013.3 |
| 20260901190128 | 34 | 355 | 4.8 | 11.3 | 0.00 | 0.00 | 0.00 | 56 | 1013.4 |
| 20260901185543 | 35 | 55 | 4.8 | 12.9 | 0.00 | 0.00 | 0.00 | 56 | 1013.4 |
| 20260901185155 | 34 | 339 | 3.2 | 14.5 | 0.00 | 0.00 | 0.00 | 56 | 1013.5 |
| 20260901184551 | 34 | 74 | 3.2 | 14.5 | 0.00 | 0.00 | 0.00 | 57 | 1013.6 |
| 20260901184104 | 34 | 351 | 3.2 | 11.3 | 0.00 | 0.00 | 0.00 | 58 | 1013.6 |
| 20260901183106 | 33 | 101 | 4.8 | 16.1 | 0.00 | 0.00 | 0.00 | 59 | 1013.9 |
| 20260901182611 | 33 | 110 | 4.8 | 17.7 | 0.00 | 0.00 | 0.00 | 59 | 1014.1 |
| 20260901182122 | 33 | 74 | 6.4 | 20.9 | 0.00 | 0.00 | 0.00 | 60 | 1014.2 |
| 20260901181553 | 33 | 96 | 8.0 | 20.9 | 0.00 | 0.00 | 0.00 | 61 | 1014.3 |
| 20260901181058 | 33 | 95 | 4.8 | 16.1 | 0.00 | 0.00 | 0.00 | 61 | 1014.5 |
| 20260901180057 | 33 | 83 | 4.8 | 17.7 | 0.00 | 0.00 | 0.00 | 62 | 1014.7 |
| 20260901175608 | 33 | 59 | 9.7 | 17.7 | 0.00 | 0.00 | 0.00 | 61 | 1014.7 |
| 20260901174608 | 33 | 69 | 12.9 | 17.7 | 0.00 | 0.00 | 0.00 | 60 | 1014.9 |
| 20260901174119 | 33 | 77 | 4.8 | 11.3 | 0.00 | 0.00 | 0.00 | 62 | 1015.0 |
| 20260901173624 | 33 | 349 | 3.2 | 12.9 | 0.00 | 0.00 | 0.00 | 61 | 1015.0 |
| 20260901173051 | 32 | 90 | 1.6 | 11.3 | 0.00 | 0.00 | 0.00 | 62 | 1015.1 |
| 20260901172559 | 32 | 107 | 4.8 | 17.7 | 0.00 | 0.00 | 0.00 | 63 | 1015.1 |
| 20260901171628 | 32 | 72 | 1.6 | 16.1 | 0.00 | 0.00 | 0.00 | 63 | 1015.2 |
| 20260901171134 | 33 | 70 | 6.4 | 20.9 | 0.00 | 0.00 | 0.00 | 62 | 1015.3 |
| 20260901170624 | 33 | 67 | 9.7 | 20.9 | 0.00 | 0.00 | 0.00 | 64 | 1015.4 |
| 20260901170044 | 32 | 67 | 8.0 | 17.7 | 0.00 | 0.00 | 0.00 | 65 | 1015.3 |
| 20260901165556 | 32 | 125 | 9.7 | 16.1 | 0.00 | 0.00 | 0.00 | 66 | 1015.3 |
| 20260901165109 | 32 | 136 | 6.4 | 17.7 | 0.00 | 0.00 | 0.00 | 66 | 1015.4 |
| 20260901164653 | 32 | 70 | 11.3 | 17.7 | 0.00 | 0.00 | 0.00 | 66 | 1015.4 |
| 20260901164123 | 32 | 89 | 3.2 | 12.9 | 0.00 | 0.00 | 0.00 | 69 | 1015.4 |
| 20260901163634 | 31 | 27 | 4.8 | 9.7 | 0.00 | 0.00 | 0.00 | 69 | 1015.4 |
| 20260901163052 | 31 | 76 | 1.6 | 14.5 | 0.00 | 0.00 | 0.00 | 69 | 1015.5 |
| 20260901162609 | 31 | 78 | 6.4 | 14.5 | 0.00 | 0.00 | 0.00 | 68 | 1015.4 |
| 20260901162109 | 31 | 59 | 6.4 | 9.7 | 0.00 | 0.00 | 0.00 | 69 | 1015.4 |
| 20260901161541 | 31 | 299 | 3.2 | 14.5 | 0.00 | 0.00 | 0.00 | 70 | 1015.4 |
| 20260901161052 | 31 | 67 | 3.2 | 14.5 | 0.00 | 0.00 | 0.00 | 69 | 1015.4 |
| 20260901160657 | 31 | 294 | 6.4 | 16.1 | 0.00 | 0.00 | 0.00 | 69 | 1015.5 |
| 20260901160104 | 31 | 315 | 9.7 | 16.1 | 0.00 | 0.00 | 0.00 | 68 | 1015.5 |
| 20260901155617 | 31 | 276 | 3.2 | 9.7 | 0.00 | 0.00 | 0.00 | 71 | 1015.5 |
| 20260901154617 | 31 | 27 | 3.2 | 9.7 | 0.00 | 0.00 | 0.00 | 73 | 1015.6 |
| 20260901154101 | 31 | 321 | 6.4 | 14.5 | 0.00 | 0.00 | 0.00 | 73 | 1015.7 |
| 20260901153129 | 30 | 346 | 1.6 | 9.7 | 0.00 | 0.00 | 0.00 | 75 | 1015.8 |
| 20260901152638 | 30 | 299 | 4.8 | 12.9 | 0.00 | 0.00 | 0.00 | 75 | 1015.8 |
| 20260901152128 | 30 | 288 | 4.8 | 12.9 | 0.00 | 0.00 | 0.00 | 75 | 1015.8 |
| 20260901151149 | 30 | 341 | 3.2 | 14.5 | 0.00 | 0.00 | 0.00 | 77 | 1015.9 |
| 20260901150637 | 29 | 319 | 4.8 | 14.5 | 0.00 | 0.00 | 0.00 | 76 | 1015.8 |
| 20260901150041 | 29 | 5 | 4.8 | 9.7 | 0.00 | 0.00 | 0.00 | 77 | 1015.7 |
| 20260901145553 | 29 | 41 | 4.8 | 8.0 | 0.00 | 0.00 | 0.00 | 79 | 1015.7 |
| 20260901144615 | 28 | 29 | 4.8 | 8.0 | 0.00 | 0.00 | 0.00 | 82 | 1015.7 |
| 20260901144125 | 28 | 306 | 3.2 | 11.3 | 0.00 | 0.00 | 0.00 | 83 | 1015.7 |
| 20260901143608 | 28 | 350 | 6.4 | 12.9 | 0.00 | 0.00 | 0.00 | 83 | 1015.7 |
| 20260901143039 | 28 | 342 | 4.8 | 12.9 | 0.00 | 0.00 | 0.00 | 84 | 1015.7 |
| 20260901142544 | 28 | 290 | 4.8 | 9.7 | 0.00 | 0.00 | 0.00 | 84 | 1015.8 |
| 20260901141603 | 28 | 360 | 6.4 | 12.9 | 0.00 | 0.00 | 0.00 | 86 | 1015.8 |
| 20260901141049 | 27 | 317 | 8.0 | 12.9 | 0.00 | 0.00 | 0.00 | 85 | 1015.9 |
| 20260901140110 | 27 | 321 | 4.8 | 9.7 | 0.00 | 0.00 | 0.00 | 86 | 1015.9 |
| 20260901135621 | 27 | 307 | 6.4 | 9.7 | 0.00 | 0.00 | 0.00 | 86 | 1016.0 |
| 20260901135127 | 27 | 346 | 1.6 | 8.0 | 0.00 | 0.00 | 0.00 | 87 | 1015.9 |
| 20260901134558 | 27 | 323 | 4.8 | 8.0 | 0.00 | 0.00 | 0.00 | 87 | 1016.0 |
| 20260901134110 | 27 | 333 | 0.0 | 6.4 | 0.00 | 0.00 | 0.00 | 87 | 1016.0 |
| 20260901133132 | 26 | 338 | 0.0 | 6.4 | 0.00 | 0.00 | 0.00 | 88 | 1016.1 |
| 20260901132644 | 26 | 337 | 4.8 | 6.4 | 0.00 | 0.00 | 0.00 | 88 | 1016.0 |
| 20260901132125 | 26 | 348 | 1.6 | 4.8 | 0.00 | 0.00 | 0.00 | 89 | 1015.9 |
| 20260901131552 | 26 | 348 | 3.2 | 6.4 | 0.00 | 0.00 | 0.00 | 89 | 1015.8 |
| 20260901131058 | 26 | 347 | 3.2 | 6.4 | 0.00 | 0.00 | 0.00 | 89 | 1015.8 |
| 20260901130609 | 25 | 345 | 0.0 | 3.2 | 0.00 | 0.00 | 0.00 | 89 | 1015.8 |
| 20260901130040 | 25 | 284 | 1.6 | 3.2 | 0.00 | 0.00 | 0.00 | 90 | 1015.6 |
| 20260901125645 | 25 | 279 | 0.0 | 4.8 | 0.00 | 0.00 | 0.00 | 90 | 1015.6 |
| 20260901125136 | 25 | 279 | 1.6 | 4.8 | 0.00 | 0.00 | 0.00 | 90 | 1015.5 |
| 20260901124603 | 25 | 275 | 0.0 | 1.6 | 0.00 | 0.00 | 0.00 | 90 | 1015.4 |
| 20260901124108 | 25 | 274 | 0.0 | 0.0 | 0.00 | 0.00 | 0.00 | 90 | 1015.4 |
| 20260901123129 | 25 | 272 | 0.0 | 0.0 | 0.00 | 0.00 | 0.00 | 89 | 1015.4 |
| 20260901122541 | 25 | 271 | 0.0 | 0.0 | 0.00 | 0.00 | 0.00 | 89 | 1015.2 |
| 20260901121546 | 25 | 271 | 0.0 | 0.0 | 0.00 | 0.00 | 0.00 | 89 | 1015.1 |
| 20260901121057 | 25 | 271 | 0.0 | 0.0 | 0.00 | 0.00 | 0.00 | 89 | 1015.0 |
| 20260901120119 | 25 | 269 | 0.0 | 0.0 | 0.00 | 0.00 | 0.00 | 89 | 1015.0 |
| 20260901115632 | 25 | 207 | 0.0 | 0.0 | 0.00 | 0.00 | 0.00 | 88 | 1014.9 |
| 20260901115136 | 25 | 207 | 0.0 | 0.0 | 0.00 | 0.00 | 0.00 | 88 | 1014.9 |
| 20260901114603 | 25 | 207 | 0.0 | 0.0 | 0.00 | 0.00 | 0.00 | 88 | 1014.9 |
| 20260901114116 | 25 | 162 | 0.0 | 0.0 | 0.00 | 0.00 | 0.00 | 88 | 1014.9 |
| 20260901113138 | 25 | 161 | 0.0 | 0.0 | 0.00 | 0.00 | 0.00 | 88 | 1014.9 |
| 20260901112624 | 25 | 161 | 0.0 | 0.0 | 0.00 | 0.00 | 0.00 | 88 | 1014.8 |
| 20260901111633 | 25 | 161 | 0.0 | 0.0 | 0.00 | 0.00 | 0.00 | 88 | 1014.8 |
| 20260901111117 | 26 | 161 | 0.0 | 0.0 | 0.00 | 0.00 | 0.00 | 88 | 1014.7 |
| 20260901110629 | 26 | 161 | 0.0 | 0.0 | 0.00 | 0.00 | 0.00 | 87 | 1014.7 |
| 20260901110044 | 26 | 160 | 0.0 | 0.0 | 0.00 | 0.00 | 0.00 | 87 | 1014.6 |
| 20260901105556 | 26 | 160 | 0.0 | 0.0 | 0.00 | 0.00 | 0.00 | 87 | 1014.5 |
| 20260901104556 | 26 | 159 | 0.0 | 0.0 | 0.00 | 0.00 | 0.00 | 87 | 1014.6 |
| 20260901104108 | 26 | 159 | 0.0 | 0.0 | 0.00 | 0.00 | 0.00 | 87 | 1014.7 |
| 20260901103129 | 26 | 159 | 0.0 | 0.0 | 0.00 | 0.00 | 0.00 | 87 | 1014.5 |
| 20260901102545 | 26 | 159 | 0.0 | 0.0 | 0.00 | 0.00 | 0.00 | 87 | 1014.5 |
| 20260901102130 | 26 | 159 | 0.0 | 0.0 | 0.00 | 0.00 | 0.00 | 86 | 1014.5 |
| 20260901101557 | 26 | 159 | 0.0 | 0.0 | 0.00 | 0.00 | 0.00 | 86 | 1014.5 |
| 20260901101109 | 26 | 159 | 0.0 | 0.0 | 0.00 | 0.00 | 0.00 | 86 | 1014.4 |
| 20260901100111 | 26 | 159 | 0.0 | 0.0 | 0.00 | 0.00 | 0.00 | 86 | 1014.3 |
| 20260901095622 | 26 | 159 | 0.0 | 0.0 | 0.00 | 0.00 | 0.00 | 86 | 1014.4 |
| 20260901094622 | 26 | 159 | 0.0 | 0.0 | 0.00 | 0.00 | 0.00 | 87 | 1014.3 |
| 20260901094126 | 26 | 159 | 0.0 | 0.0 | 0.00 | 0.00 | 0.00 | 87 | 1014.3 |
| 20260901093638 | 26 | 159 | 0.0 | 0.0 | 0.00 | 0.00 | 0.00 | 87 | 1014.4 |
| 20260901093041 | 26 | 159 | 0.0 | 0.0 | 0.00 | 0.00 | 0.00 | 87 | 1014.3 |
| 20260901092553 | 26 | 159 | 0.0 | 0.0 | 0.00 | 0.00 | 0.00 | 87 | 1014.4 |
| 20260901091615 | 26 | 161 | 0.0 | 0.0 | 0.00 | 0.00 | 0.00 | 86 | 1014.6 |
| 20260901091106 | 26 | 161 | 0.0 | 0.0 | 0.00 | 0.00 | 0.00 | 86 | 1014.6 |
| 20260901090107 | 26 | 161 | 0.0 | 0.0 | 0.00 | 0.00 | 0.00 | 86 | 1014.6 |
| 20260901085611 | 26 | 161 | 0.0 | 0.0 | 0.00 | 0.00 | 0.00 | 86 | 1014.5 |
| 20260901085123 | 26 | 161 | 0.0 | 0.0 | 0.00 | 0.00 | 0.00 | 86 | 1014.6 |
| 20260901084555 | 26 | 161 | 0.0 | 0.0 | 0.00 | 0.00 | 0.00 | 86 | 1014.6 |
| 20260901084101 | 26 | 161 | 0.0 | 0.0 | 0.00 | 0.00 | 0.00 | 86 | 1014.6 |
| 20260901083130 | 26 | 161 | 0.0 | 0.0 | 0.00 | 0.00 | 0.00 | 86 | 1014.6 |
| 20260901082635 | 26 | 161 | 0.0 | 0.0 | 0.00 | 0.00 | 0.00 | 86 | 1014.7 |
| 20260901082045 | 26 | 161 | 0.0 | 0.0 | 0.00 | 0.00 | 0.00 | 85 | 1014.7 |
| 20260901081651 | 26 | 161 | 0.0 | 0.0 | 0.00 | 0.00 | 0.00 | 85 | 1014.7 |
| 20260901081041 | 26 | 161 | 0.0 | 0.0 | 0.00 | 0.00 | 0.00 | 85 | 1014.7 |
| 20260901080107 | 26 | 161 | 0.0 | 0.0 | 0.00 | 0.00 | 0.00 | 86 | 1014.7 |
| 20260901075619 | 26 | 161 | 0.0 | 3.2 | 0.00 | 0.00 | 0.00 | 86 | 1014.7 |
| 20260901075118 | 26 | 161 | 0.0 | 4.8 | 0.00 | 0.00 | 0.00 | 86 | 1014.7 |
| 20260901074549 | 26 | 161 | 1.6 | 6.4 | 0.00 | 0.00 | 0.00 | 85 | 1014.6 |
| 20260901074100 | 26 | 159 | 3.2 | 6.4 | 0.00 | 0.00 | 0.00 | 85 | 1014.7 |
| 20260901073100 | 26 | 159 | 1.6 | 4.8 | 0.00 | 0.00 | 0.00 | 85 | 1014.7 |
| 20260901072603 | 27 | 160 | 0.0 | 3.2 | 0.00 | 0.00 | 0.00 | 85 | 1014.9 |
| 20260901071633 | 27 | 161 | 3.2 | 8.0 | 0.00 | 0.00 | 0.00 | 85 | 1014.9 |
| 20260901071041 | 27 | 161 | 3.2 | 6.4 | 0.00 | 0.00 | 0.00 | 85 | 1014.9 |
| 20260901070654 | 27 | 161 | 3.2 | 4.8 | 0.00 | 0.00 | 0.00 | 85 | 1014.9 |
| 20260901070053 | 27 | 155 | 3.2 | 4.8 | 0.00 | 0.00 | 0.00 | 85 | 1015.0 |
| 20260901065604 | 27 | 153 | 3.2 | 9.7 | 0.00 | 0.00 | 0.00 | 85 | 1015.1 |
| 20260901065046 | 27 | 153 | 3.2 | 9.7 | 0.00 | 0.00 | 0.00 | 84 | 1015.0 |
| 20260901064544 | 27 | 155 | 4.8 | 9.7 | 0.00 | 0.00 | 0.00 | 84 | 1015.0 |
| 20260901064054 | 27 | 159 | 4.8 | 9.7 | 0.00 | 0.00 | 0.00 | 84 | 1015.0 |
| 20260901063545 | 27 | 150 | 4.8 | 8.0 | 0.00 | 0.00 | 0.00 | 84 | 1015.0 |
| 20260901063057 | 27 | 148 | 3.2 | 8.0 | 0.00 | 0.00 | 0.00 | 84 | 1015.0 |
| 20260901062607 | 27 | 150 | 3.2 | 8.0 | 0.00 | 0.00 | 0.00 | 83 | 1015.0 |
| 20260901062122 | 27 | 150 | 3.2 | 8.0 | 0.00 | 0.00 | 0.00 | 83 | 1014.9 |
| 20260901061613 | 27 | 151 | 4.8 | 8.0 | 0.00 | 0.00 | 0.00 | 83 | 1014.9 |
| 20260901061042 | 27 | 154 | 4.8 | 9.7 | 0.00 | 0.00 | 0.00 | 83 | 1014.8 |
| 20260901060552 | 27 | 154 | 4.8 | 9.7 | 0.00 | 0.00 | 0.00 | 83 | 1014.8 |
| 20260901060045 | 27 | 152 | 6.4 | 9.7 | 0.00 | 0.00 | 0.00 | 83 | 1014.8 |
| 20260901055623 | 27 | 166 | 8.0 | 9.7 | 0.00 | 0.00 | 0.00 | 83 | 1014.7 |
| 20260901055045 | 27 | 166 | 6.4 | 8.0 | 0.00 | 0.00 | 0.00 | 82 | 1014.7 |
| 20260901054544 | 27 | 169 | 4.8 | 8.0 | 0.00 | 0.00 | 0.00 | 82 | 1014.6 |
| 20260901054053 | 27 | 169 | 6.4 | 8.0 | 0.00 | 0.00 | 0.00 | 82 | 1014.5 |
| 20260901053603 | 27 | 173 | 6.4 | 9.7 | 0.00 | 0.00 | 0.00 | 82 | 1014.5 |
| 20260901053056 | 27 | 178 | 4.8 | 9.7 | 0.00 | 0.00 | 0.00 | 82 | 1014.4 |
| 20260901052546 | 28 | 187 | 4.8 | 11.3 | 0.00 | 0.00 | 0.00 | 82 | 1014.4 |
| 20260901052118 | 28 | 192 | 6.4 | 12.9 | 0.00 | 0.00 | 0.00 | 82 | 1014.4 |
| 20260901051550 | 28 | 182 | 8.0 | 12.9 | 0.00 | 0.00 | 0.00 | 82 | 1014.4 |
| 20260901051039 | 28 | 177 | 8.0 | 12.9 | 0.00 | 0.00 | 0.00 | 81 | 1014.4 |
| 20260901050550 | 28 | 177 | 9.7 | 12.9 | 0.00 | 0.00 | 0.00 | 81 | 1014.4 |
| 20260901050048 | 28 | 187 | 8.0 | 11.3 | 0.00 | 0.00 | 0.00 | 81 | 1014.3 |
| 20260901045547 | 28 | 183 | 8.0 | 11.3 | 0.00 | 0.00 | 0.00 | 81 | 1014.3 |
| 20260901044611 | 28 | 178 | 9.7 | 12.9 | 0.00 | 0.00 | 0.00 | 80 | 1014.3 |
| 20260901044122 | 28 | 179 | 8.0 | 12.9 | 0.00 | 0.00 | 0.00 | 80 | 1014.3 |
| 20260901043634 | 28 | 186 | 8.0 | 12.9 | 0.00 | 0.00 | 0.00 | 79 | 1014.2 |
| 20260901043056 | 28 | 179 | 8.0 | 14.5 | 0.00 | 0.00 | 0.00 | 79 | 1014.2 |
| 20260901042606 | 28 | 187 | 8.0 | 14.5 | 0.00 | 0.00 | 0.00 | 78 | 1014.3 |
| 20260901041607 | 28 | 190 | 9.7 | 14.5 | 0.00 | 0.00 | 0.00 | 77 | 1014.2 |
| 20260901041111 | 28 | 197 | 8.0 | 14.5 | 0.00 | 0.00 | 0.00 | 76 | 1014.1 |
| 20260901040622 | 28 | 200 | 8.0 | 12.9 | 0.00 | 0.00 | 0.00 | 74 | 1014.1 |
| 20260901040053 | 29 | 188 | 6.4 | 11.3 | 0.00 | 0.00 | 0.00 | 72 | 1014.1 |
| 20260901035637 | 29 | 183 | 4.8 | 11.3 | 0.00 | 0.00 | 0.00 | 71 | 1014.1 |
| 20260901035044 | 29 | 174 | 4.8 | 11.3 | 0.00 | 0.00 | 0.00 | 70 | 1014.1 |
| 20260901034151 | 29 | 167 | 6.4 | 11.3 | 0.00 | 0.00 | 0.00 | 69 | 1014.1 |
| 20260901033635 | 30 | 170 | 8.0 | 9.7 | 0.00 | 0.00 | 0.00 | 69 | 1014.1 |
| 20260901033101 | 30 | 173 | 6.4 | 9.7 | 0.00 | 0.00 | 0.00 | 68 | 1014.1 |
| 20260901032614 | 30 | 180 | 8.0 | 12.9 | 0.00 | 0.00 | 0.00 | 67 | 1013.9 |
| 20260901031615 | 30 | 165 | 8.0 | 14.5 | 0.00 | 0.00 | 0.00 | 66 | 1013.9 |
| 20260901031120 | 30 | 155 | 8.0 | 14.5 | 0.00 | 0.00 | 0.00 | 66 | 1013.8 |
| 20260901030636 | 30 | 140 | 9.7 | 16.1 | 0.00 | 0.00 | 0.00 | 66 | 1013.8 |
| 20260901025606 | 30 | 150 | 9.7 | 16.1 | 0.00 | 0.00 | 0.00 | 66 | 1013.8 |
| 20260901024635 | 30 | 150 | 6.4 | 12.9 | 0.00 | 0.00 | 0.00 | 65 | 1013.5 |
| 20260901024118 | 30 | 153 | 8.0 | 12.9 | 0.00 | 0.00 | 0.00 | 65 | 1013.4 |
| 20260901023631 | 30 | 150 | 8.0 | 12.9 | 0.00 | 0.00 | 0.00 | 64 | 1013.2 |
| 20260901023052 | 30 | 148 | 6.4 | 14.5 | 0.00 | 0.00 | 0.00 | 65 | 1013.3 |
| 20260901022603 | 31 | 146 | 9.7 | 14.5 | 0.00 | 0.00 | 0.00 | 64 | 1013.1 |
| 20260901021627 | 31 | 160 | 8.0 | 12.9 | 0.00 | 0.00 | 0.00 | 64 | 1012.9 |
| 20260901021119 | 31 | 146 | 8.0 | 12.9 | 0.00 | 0.00 | 0.00 | 64 | 1013.0 |
| 20260901020142 | 31 | 148 | 6.4 | 16.1 | 0.00 | 0.00 | 0.00 | 64 | 1012.7 |
| 20260901015633 | 31 | 142 | 6.4 | 16.1 | 0.00 | 0.00 | 0.00 | 64 | 1012.8 |
| 20260901015136 | 31 | 147 | 9.7 | 17.7 | 0.00 | 0.00 | 0.00 | 64 | 1012.8 |